Zurück zum Katalog

STARLINK-31272

AktivKommunikationVLEO
NORAD 59162·PAYLOAD·🇺🇸 United States

Gestartet Mar 4, 2024 von Cape Canaveral Space Force Station

Loading…

Nächste Überflüge (nächste 24 Stunden)

TLE

AktuellSource: CelesTrak SupGP

Epoche: Sep 14, 2026, 21:02 UTC

1 59162C 24044L   26257.87687500 -.00037985  00000+0 -13761-2 0  2570
2 59162  43.0005 118.3487 0001403 270.7617  38.5255 15.27590655    11

Verfolge STARLINK-31272 in Echtzeit mit AllMySat

Download on the App Store